Content
SEND FEEDBACK

Daily
Averages
Monthly
Summary
United States of America

JEFFERSONVILLE, INDIANA


Home > North America > United States > Indiana
Elevation: 460 feet     Latitude: 38 17N     Longitude: 085 45W

WEATHER
 
SELECT A DAY
Number of Records: 203,099;   Date Range: 1/1/95 - 11/21/14
 
SHARE

PRINT THIS DATA

[ ← Previous Day ]
WEATHER ALMANAC - JANUARY 31, 2013
[ Next Day → ]
[ °C ]   °F
Weather ElementAverageHighLow
Temperature29.1 °F35.1 °F (3:53 pm)19 °F (11:53 pm)
Dewpoint20.4 °F28.4 °F (9:03 pm)9 °F (11:53 pm)
Humidity71 %93 % (9:03 pm)48 % (3:53 pm)
Barometer29.97 in30.16 in (11:53 pm)29.76 in (12:53 am)
Wind Speed14.5 mph28.8 mph (9:25 pm)
Wind Gust38 mph (12:53 am)
Weather ElementAverage
Visibility6.1 mi
Wind DirectionW (268.6 °)

Weather ElementTotal
Precipitation0.08 in
Heating Degree Days38 (Base 65)
Averaged from 49 records on January 31, 2013
WEATHER CONDITIONS BREAKOUT
WIND DIRECTION BREAKOUT
WEATHER BY HOUR - JANUARY 31, 2013
[ °C ]   °F
Local TimeTemperatureDewpointHumidityBarometerVisibilityWind DirectionWind SpeedGust SpeedPrecipitationEventsConditions
12:53 AM32.0 °F23.0 °F69 %29.76 in10.0 miWest (270°)20.7 mph38.0 mphOvercast
1:53 AM30.9 °F19.0 °F61 %29.81 in10.0 miWest (270°)21.9 mph32.2 mphOvercast
2:11 AM30.2 °F17.6 °F60 %29.82 in10.0 miWest (260°)19.6 mph32.2 mphOvercast
2:53 AM30.0 °F17.1 °F59 %29.84 in10.0 miWest (280°)15.0 mph26.5 mphOvercast
3:53 AM30.0 °F17.1 °F59 %29.86 in10.0 miWest (270°)17.3 mph31.1 mphOvercast
4:53 AM30.0 °F17.1 °F59 %29.86 in10.0 miWest (280°)13.8 mphOvercast
5:53 AM30.0 °F18.0 °F61 %29.88 in10.0 miWSW (250°)17.3 mph25.3 mphOvercast
6:48 AM28.4 °F19.4 °F69 %29.90 in10.0 miWest (260°)11.5 mph20.7 mphOvercast
6:53 AM28.9 °F18.0 °F64 %29.92 in10.0 miWest (260°)16.1 mph23.0 mphOvercast
7:39 AM28.4 °F17.6 °F64 %29.93 in10.0 miWNW (290°)16.1 mph25.3 mph0.00 inOvercast
7:53 AM28.9 °F18.0 °F64 %29.96 in9.0 miWest (270°)12.7 mph21.9 mph0.00 inOvercast
8:11 AM26.6 °F19.4 °F74 %29.96 in3.0 miWNW (300°)15.0 mph23.0 mph0.00 inSnowLight Snow
8:20 AM26.6 °F19.4 °F74 %29.96 in2.5 miWest (270°)11.5 mph0.00 inSnowLight Snow
8:22 AM26.6 °F19.4 °F74 %29.95 in3.0 miWest (280°)10.4 mph0.00 inSnowLight Snow
8:53 AM28.0 °F17.1 °F63 %29.98 in10.0 miWest (260°)9.2 mph0.00 inOvercast
9:12 AM28.4 °F17.6 °F64 %29.98 in4.0 miWest (270°)11.5 mph19.6 mph0.00 inSnowLight Snow
9:24 AM26.6 °F19.4 °F74 %29.99 in1.8 miWest (280°)12.7 mph0.00 inSnowLight Snow
9:51 AM26.6 °F21.2 °F80 %30.00 in3.0 miWSW (250°)5.8 mph0.00 inSnowLight Snow
9:53 AM26.1 °F21.9 °F84 %30.02 in3.0 miWSW (250°)4.6 mph0.00 inSnowLight Snow
10:06 AM26.6 °F21.2 °F80 %30.00 in10.0 miWest (260°)5.8 mph0.00 inOvercast
10:53 AM28.9 °F18.0 °F64 %30.02 in10.0 miWSW (250°)13.8 mph19.6 mph0.00 inOvercast
11:42 AM28.4 °F21.2 °F74 %30.02 in2.0 miWSW (250°)8.1 mph0.00 inSnowLight Snow
11:49 AM28.4 °F23.0 °F80 %30.01 in3.0 miWSW (250°)8.1 mph0.00 inSnowLight Snow
11:53 AM28.9 °F21.9 °F75 %30.03 in4.0 miWSW (240°)12.7 mph0.00 inSnowLight Snow
12:40 PM30.2 °F23.0 °F75 %30.02 in7.0 miSW (230°)11.5 mphSnowLight Snow
12:53 PM30.0 °F23.0 °F75 %30.03 in2.5 miWSW (250°)12.7 mph0.00 inSnowLight Snow
1:03 PM30.2 °F23.0 °F75 %30.00 in4.0 miWSW (250°)9.2 mph18.4 mph0.00 inSnowLight Snow
1:53 PM34.0 °F18.0 °F52 %29.99 in10.0 miWSW (250°)17.3 mph29.9 mph0.00 inOvercast
2:53 PM34.0 °F17.1 °F50 %29.99 in10.0 miWSW (240°)16.1 mph28.8 mphOvercast
3:53 PM35.1 °F17.1 °F48 %29.98 in10.0 miWSW (250°)15.0 mph26.5 mphOvercast
4:53 PM35.1 °F18.0 °F50 %29.98 in10.0 miWest (260°)16.1 mph23.0 mphOvercast
5:53 PM34.0 °F19.0 °F54 %29.98 in10.0 miWest (260°)13.8 mphOvercast
6:53 PM34.0 °F21.9 °F61 %29.99 in10.0 miWest (270°)10.4 mph0.00 inOvercast
7:53 PM33.1 °F23.0 °F66 %29.99 in10.0 miWest (260°)15.0 mph25.3 mphOvercast
8:12 PM32.0 °F26.6 °F80 %29.97 in1.8 miWSW (250°)12.7 mph20.7 mph0.00 inSnowLight Snow
8:19 PM30.2 °F26.6 °F86 %29.97 in1.2 miWSW (250°)12.7 mph0.00 inSnowLight Snow
8:53 PM30.9 °F28.0 °F89 %29.99 in1.0 miWSW (240°)6.9 mph0.00 inSnowLight Snow
9:03 PM30.2 °F28.4 °F93 %29.97 in0.8 miWest (260°)4.6 mph0.00 inSnowLight Snow
9:07 PM30.2 °F28.4 °F93 %29.97 in0.8 miWSW (250°)5.8 mph0.01 inSnowLight Snow
9:18 PM30.2 °F28.4 °F93 %29.97 in1.2 miWest (260°)9.2 mph0.01 inSnowLight Snow
9:25 PM30.2 °F26.6 °F86 %29.99 in0.8 miWNW (290°)28.8 mph35.7 mph0.01 inSnowLight Snow
9:33 PM26.6 °F23.0 °F86 %30.01 in0.5 miNW (310°)21.9 mph38.0 mph0.01 inFog-SnowSnow
9:36 PM26.6 °F21.2 °F80 %30.01 in1.0 miWNW (300°)25.3 mph38.0 mph0.01 inSnowLight Snow
9:41 PM26.6 °F21.2 °F80 %30.03 in2.0 miNW (310°)19.6 mph31.1 mph0.01 inSnowLight Snow
9:50 PM26.6 °F19.4 °F74 %30.04 in5.0 miNW (320°)23.0 mph29.9 mph0.01 inSnowLight Snow
9:53 PM25.0 °F19.0 °F78 %30.06 in7.0 miNW (320°)25.3 mph31.1 mph0.01 inSnowLight Snow
10:00 PM24.8 °F17.6 °F74 %30.05 in5.0 miNW (320°)19.6 mph33.4 mph0.00 inSnowLight Snow
10:53 PM23.0 °F12.9 °F65 %30.11 in10.0 miWest (280°)19.6 mph28.8 mph0.00 inOvercast
11:53 PM19.0 °F9.0 °F65 %30.16 in10.0 miNW (310°)25.3 mph32.2 mphOvercast
Hourly data recorded from KLOU, located miles away from Jeffersonville, Indiana







STORIES FROM OUR PARTNERS